Total_Precipitation_Accumulation
0.44 0.30 0.31 0.38 0.38 0.40 0.51 0.55 0.49 0.29 0.20 0.18 0.16 0.14 0.13 0.12 0.10 0.08 0.07 0.09 0.12 0.12 0.11 0.13 0.15 0.16 0.21 0.27 0.29 0.34 0.40 0.42 0.42 0.43 0.47 0.47 0.49 0.52 0.55 0.59 0.62 0.65 0.65 0.69
0.51 0.31 0.29 0.31 0.27 0.28 0.34 0.33 0.30 0.23 0.23 0.20 0.17 0.14 0.10 0.10 0.12 0.11 0.10 0.11 0.11 0.14 0.14 0.14 0.19 0.26 0.31 0.38 0.41 0.44 0.49 0.51 0.50 0.45 0.45 0.49 0.50 0.50 0.53 0.58 0.59 0.59 0.59 0.61
0.72 0.38 0.52 0.54 0.32 0.29 0.31 0.32 0.29 0.29 0.26 0.20 0.17 0.15 0.13 0.12 0.13 0.14 0.13 0.12 0.12 0.15 0.19 0.20 0.26 0.34 0.41 0.45 0.46 0.48 0.51 0.55 0.56 0.49 0.45 0.48 0.50 0.49 0.48 0.49 0.51 0.52 0.53 0.54
1.00 0.73 0.95 0.48 0.20 0.23 0.25 0.28 0.29 0.28 0.25 0.22 0.21 0.17 0.14 0.13 0.14 0.16 0.17 0.18 0.17 0.18 0.21 0.26 0.32 0.38 0.44 0.48 0.50 0.51 0.51 0.50 0.50 0.45 0.39 0.41 0.47 0.46 0.42 0.42 0.46 0.47 0.48 0.47
1.25 0.97 0.56 0.19 0.13 0.20 0.27 0.33 0.31 0.28 0.25 0.22 0.20 0.16 0.16 0.18 0.17 0.17 0.17 0.17 0.16 0.16 0.17 0.23 0.28 0.32 0.35 0.39 0.41 0.42 0.41 0.39 0.39 0.37 0.36 0.40 0.45 0.42 0.38 0.37 0.39 0.41 0.43 0.46
1.37 1.08 0.54 0.21 0.10 0.14 0.26 0.37 0.28 0.25 0.25 0.25 0.25 0.39 0.29 0.23 0.18 0.15 0.13 0.11 0.12 0.13 0.13 0.16 0.20 0.22 0.23 0.26 0.28 0.31 0.32 0.32 0.37 0.34 0.32 0.36 0.43 0.41 0.39 0.37 0.39 0.41 0.44 0.51
1.16 1.01 0.46 0.18 0.11 0.14 0.39 0.49 0.30 0.27 0.27 0.30 0.40 0.46 0.31 0.23 0.20 0.17 0.14 0.13 0.13 0.14 0.17 0.19 0.22 0.24 0.23 0.21 0.22 0.23 0.25 0.28 0.35 0.37 0.34 0.34 0.37 0.39 0.39 0.39 0.40 0.42 0.44 0.49
0.91 1.10 0.59 0.19 0.18 0.34 0.49 0.33 0.27 0.28 0.30 0.37 0.34 0.25 0.21 0.22 0.22 0.19 0.17 0.16 0.16 0.19 0.24 0.28 0.27 0.23 0.20 0.18 0.17 0.17 0.21 0.23 0.29 0.37 0.35 0.34 0.36 0.36 0.36 0.40 0.43 0.45 0.46 0.49
0.68 0.63 0.37 0.26 0.31 0.33 0.31 0.31 0.33 0.40 0.41 0.40 0.37 0.30 0.28 0.25 0.21 0.19 0.18 0.19 0.20 0.20 0.25 0.29 0.26 0.20 0.18 0.17 0.15 0.16 0.18 0.22 0.27 0.33 0.33 0.32 0.34 0.35 0.36 0.38 0.45 0.50 0.52 0.54
0.47 0.36 0.27 0.24 0.21 0.21 0.23 0.28 0.32 0.35 0.38 0.41 0.44 0.38 0.33 0.31 0.28 0.25 0.23 0.23 0.22 0.20 0.23 0.27 0.22 0.18 0.17 0.16 0.15 0.15 0.19 0.24 0.29 0.33 0.35 0.34 0.33 0.34 0.36 0.42 0.57 0.67 0.66 0.65
0.34 0.28 0.24 0.23 0.23 0.23 0.24 0.22 0.21 0.22 0.27 0.38 0.44 0.40 0.33 0.31 0.32 0.33 0.32 0.29 0.27 0.26 0.26 0.25 0.19 0.15 0.16 0.19 0.21 0.22 0.23 0.27 0.32 0.36 0.37 0.37 0.35 0.36 0.41 0.45 0.69 0.96 0.93 0.91
0.32 0.25 0.25 0.26 0.23 0.23 0.25 0.25 0.24 0.25 0.27 0.29 0.32 0.33 0.30 0.31 0.32 0.33 0.34 0.34 0.32 0.28 0.24 0.21 0.18 0.16 0.16 0.19 0.24 0.26 0.27 0.30 0.34 0.40 0.42 0.42 0.41 0.41 0.43 0.47 0.57 0.65 0.72 0.85
0.25 0.21 0.20 0.20 0.19 0.19 0.22 0.25 0.27 0.28 0.28 0.24 0.24 0.25 0.30 0.35 0.34 0.33 0.33 0.32 0.29 0.25 0.23 0.23 0.21 0.20 0.20 0.23 0.27 0.30 0.32 0.34 0.38 0.41 0.43 0.45 0.47 0.48 0.48 0.45 0.46 0.51 0.56 0.64
0.19 0.18 0.20 0.18 0.18 0.17 0.18 0.20 0.22 0.25 0.24 0.20 0.20 0.22 0.26 0.31 0.31 0.27 0.27 0.26 0.24 0.22 0.21 0.22 0.21 0.22 0.23 0.24 0.28 0.32 0.35 0.38 0.42 0.44 0.46 0.47 0.49 0.50 0.50 0.50 0.50 0.50 0.50 0.55
0.16 0.18 0.21 0.18 0.16 0.16 0.17 0.17 0.18 0.20 0.19 0.19 0.18 0.19 0.22 0.26 0.29 0.30 0.26 0.22 0.19 0.20 0.20 0.20 0.21 0.21 0.22 0.23 0.26 0.29 0.32 0.35 0.39 0.43 0.46 0.47 0.50 0.52 0.52 0.51 0.52 0.52 0.53 0.56
0.17 0.18 0.18 0.18 0.20 0.21 0.20 0.18 0.19 0.20 0.18 0.19 0.19 0.19 0.20 0.21 0.22 0.23 0.22 0.20 0.18 0.20 0.21 0.21 0.21 0.22 0.22 0.25 0.27 0.29 0.31 0.38 0.43 0.45 0.47 0.48 0.51 0.53 0.55 0.56 0.56 0.55 0.58 0.63
0.21 0.21 0.22 0.24 0.24 0.26 0.27 0.25 0.22 0.20 0.16 0.14 0.15 0.16 0.15 0.16 0.16 0.17 0.18 0.19 0.19 0.20 0.20 0.21 0.23 0.22 0.22 0.25 0.31 0.33 0.34 0.38 0.44 0.45 0.46 0.49 0.53 0.58 0.60 0.63 0.65 0.62 0.59 0.63
0.26 0.27 0.29 0.32 0.32 0.30 0.29 0.26 0.22 0.19 0.16 0.15 0.14 0.14 0.15 0.15 0.17 0.17 0.18 0.18 0.18 0.18 0.19 0.21 0.23 0.21 0.21 0.25 0.34 0.37 0.40 0.44 0.46 0.48 0.48 0.51 0.57 0.60 0.61 0.64 0.64 0.62 0.58 0.58
0.24 0.26 0.28 0.30 0.31 0.31 0.30 0.26 0.23 0.22 0.21 0.19 0.18 0.19 0.20 0.20 0.21 0.21 0.20 0.19 0.18 0.20 0.20 0.20 0.22 0.20 0.21 0.26 0.39 0.42 0.46 0.49 0.49 0.48 0.49 0.56 0.56 0.53 0.57 0.61 0.62 0.60 0.58 0.58
0.25 0.25 0.27 0.28 0.28 0.28 0.28 0.25 0.22 0.22 0.23 0.23 0.22 0.22 0.23 0.24 0.24 0.23 0.22 0.22 0.24 0.26 0.23 0.22 0.22 0.23 0.27 0.33 0.45 0.49 0.52 0.54 0.54 0.52 0.52 0.54 0.54 0.54 0.55 0.57 0.60 0.61 0.59 0.60
0.29 0.27 0.27 0.27 0.26 0.24 0.24 0.22 0.20 0.20 0.22 0.22 0.22 0.23 0.24 0.25 0.25 0.24 0.23 0.24 0.25 0.25 0.24 0.25 0.26 0.36 0.43 0.51 0.55 0.53 0.53 0.54 0.56 0.57 0.58 0.59 0.59 0.56 0.55 0.57 0.60 0.61 0.61 0.61
0.28 0.29 0.29 0.27 0.25 0.24 0.24 0.22 0.21 0.21 0.21 0.22 0.23 0.24 0.24 0.25 0.25 0.25 0.26 0.29 0.31 0.33 0.30 0.29 0.37 0.55 0.60 0.61 0.55 0.53 0.52 0.50 0.52 0.55 0.58 0.62 0.65 0.65 0.62 0.62 0.66 0.64 0.63 0.65
0.28 0.29 0.30 0.29 0.27 0.26 0.25 0.25 0.24 0.24 0.24 0.25 0.25 0.26 0.28 0.30 0.29 0.31 0.37 0.35 0.34 0.37 0.34 0.34 0.47 0.57 0.59 0.54 0.50 0.50 0.50 0.52 0.53 0.56 0.60 0.65 0.68 0.71 0.73 0.71 0.70 0.70 0.72 0.72
0.32 0.33 0.33 0.31 0.28 0.25 0.27 0.28 0.27 0.27 0.28 0.29 0.30 0.30 0.30 0.31 0.33 0.33 0.37 0.37 0.36 0.37 0.35 0.39 0.46 0.49 0.49 0.47 0.47 0.49 0.52 0.57 0.62 0.64 0.65 0.67 0.69 0.71 0.75 0.77 0.77 0.73 0.73 0.74
0.37 0.36 0.34 0.31 0.29 0.29 0.32 0.31 0.30 0.29 0.28 0.30 0.32 0.32 0.32 0.32 0.37 0.38 0.36 0.36 0.36 0.37 0.37 0.39 0.42 0.43 0.42 0.44 0.47 0.51 0.57 0.64 0.72 0.76 0.75 0.74 0.71 0.73 0.75 0.77 0.81 0.82 0.79 0.77
0.41 0.40 0.38 0.36 0.34 0.33 0.33 0.32 0.33 0.34 0.31 0.31 0.33 0.32 0.31 0.32 0.33 0.34 0.36 0.37 0.37 0.37 0.37 0.37 0.38 0.41 0.44 0.46 0.49 0.54 0.59 0.64 0.67 0.67 0.66 0.69 0.69 0.71 0.74 0.77 0.80 0.82 0.82 0.79
0.40 0.37 0.34 0.32 0.31 0.31 0.31 0.31 0.33 0.35 0.34 0.33 0.34 0.32 0.29 0.28 0.29 0.31 0.33 0.35 0.37 0.38 0.39 0.40 0.42 0.44 0.46 0.48 0.51 0.55 0.58 0.61 0.65 0.69 0.69 0.69 0.70 0.72 0.74 0.78 0.81 0.81 0.81 0.80